Regional Weather Roundup
Issued by NWS

Home | Current Version | Previous Version | Text Only | Print | Product List | Glossary Off
Versions: 1 2 3 4 5 6 7 8 9 10 11 12 13 14 15 16 17 18 19 20 21 22 23 24 25 26 27 28 29 30 31 32 33 34 35 36 37 38 39 40 41 42 43 44 45 46 47 48 49

000
ASUS43 KDMX 031007
RWRIA

WEATHER ROUNDUP FOR IOWA
NATIONAL WEATHER SERVICE DES MOINES IA
500 AM CDT FRI JUL 03 2015

NOTE: "FAIR" INDICATES FEW OR NO CLOUDS BELOW 12,000 FEET WITH NO
SIGNIFICANT WEATHER AND/OR OBSTRUCTIONS TO VISIBILITY.

* - THESE STATIONS ARE NOT NWS STATIONS...THUS NOT UNDER NWS
QUALITY CONTROL.  THEY ALSO DO NOT REPORT WEATHER SUCH
AS PRECIPITATION OR FOG.

IAZ001>003-012>014-020>022-031>034-043>046-031100-
   NORTHWEST IOWA

CITY           SKY/WX    TMP DP  RH WIND       PRES   REMARKS
CARROLL *      CLOUDY    57  57 100 CALM      30.00S
CHEROKEE *     FOG       50  50 100 CALM      30.01S VSB 1/4
DENISON *      CLOUDY    54  54 100 CALM      29.98F
LE MARS *      FOG       52  52 100 CALM      30.02S VSB 1/4
ORANGE CITY *  CLEAR     54  54 100 CALM      30.01S
SHELDON *      FOG       46  46 100 CALM      30.01S VSB 0
SIOUX CITY     CLEAR     54  52  93 CALM      30.01S FOG
SPENCER        FOG       47  44  90 NW3       30.02S VSB 1/4
STORM LAKE *   CLEAR     54  54 100 N8        30.02S
$$

IAZ055>058-069>071-079>083-090>094-031100-
   SOUTHWEST IOWA

CITY           SKY/WX    TMP DP  RH WIND       PRES   REMARKS
ATLANTIC *     CLOUDY    59  57  94 N5        29.99S
AUDUBON *      CLEAR     57  54  88 CALM      30.01S
CLARINDA *     CLEAR     59  59 100 N6        29.98S
COUNCIL BLFS * MOCLDY    55  55 100 N6        29.99S
CRESTON *      CLEAR     59  57  94 NE7       29.98S
HARLAN  *      CLEAR     55  55 100 CALM      30.02F
LAMONI         CLOUDY    60  58  92 NE3       29.96S
RED OAK *      CLEAR     57  55  94 NE5       29.98S
SHENANDOAH *   PTCLDY    59  57  94 N3        29.98S
$$

IAZ047>049-059>061-072>074-084-031100-
   CENTRAL IOWA

CITY           SKY/WX    TMP DP  RH WIND       PRES   REMARKS
AMES           PTCLDY    53  52  96 NW3       29.99S
ANKENY *       CLEAR     55  55 100 N5        29.98S
CHARITON *     CLOUDY    57  57 100 N5        29.97S
DES MOINES     CLOUDY    60  54  80 N3        29.97F
GRINNELL*      MOCLDY    55  54  94 CALM      29.98S
KNOXVILLE *    CLOUDY    61  57  88 CALM      29.96S
MARSHALLTOWN   PTCLDY    54  53  97 NW6       29.98S
PELLA *        CLOUDY    57  57 100 NE3       29.98S
PERRY *          N/A     55  54  94 N3        29.99S
$$

IAZ004>006-015-016-023>025-035-036-031100-
   NORTH CENTRAL IOWA

CITY           SKY/WX    TMP DP  RH WIND       PRES   REMARKS
ALGONA *       CLEAR     52  50  93 N3        30.01S
CLARION *      CLEAR     52  50  93 NE5       30.01S
ESTHERVILLE    CLEAR     47  46  97 W7        30.01S
FORT DODGE *   CLEAR     50  48  93 CALM      30.01S
MASON CITY     CLEAR     53  51  93 W3        30.02S
FOREST CITY *    N/A     50  50 100 CALM      30.01S FOG
IOWA FALLS *     N/A     52  50  93 CALM      30.01S
$$

IAZ007>011-017>019-026>030-037>042-050>054-066-031100-
   NORTHEAST IOWA

CITY           SKY/WX    TMP DP  RH WIND       PRES   REMARKS
CEDAR RAPIDS   PTCLDY    57  53  86 N5        29.97S
CHARLES CITY * CLEAR     54  54 100 N5        30.01S
CLINTON *      MOCLDY    55  52  88 NE5       30.00S
DECORAH *        N/A    N/A N/A N/A MISG        N/A
DUBUQUE        PTCLDY    53  50  89 NE3       29.99S
MONTICELLO *   CLEAR     52  48  87 CALM      29.99R
OELWEIN *      CLEAR     54  52  94 NE5       30.00S
WATERLOO       PTCLDY    52  51  97 CALM      29.99S
$$

IAZ064-065-067-068-078-031100-
   EAST CENTRAL IOWA

CITY           SKY/WX    TMP DP  RH WIND       PRES   REMARKS
DAVENPORT      MOCLDY    57  54  89 NE5       29.97S
IOWA CITY      MOCLDY    60  55  83 NE5       29.97S
MT. PLEASANT * CLOUDY    63  59  88 N6        29.95S
MUSCATINE *    PTCLDY    61  57  88 CALM      29.96S
QUAD CITIES    CLOUDY    60  54  80 E6        29.96S
$$

IAZ062-063-075>077-085>089-095>099-031100-
   SOUTHEAST IOWA

CITY           SKY/WX    TMP DP  RH WIND       PRES   REMARKS
BURLINGTON     CLOUDY    63  58  83 NE7       29.94R
FAIRFIELD *    CLOUDY    59  57  94 N6        29.96R
FORT MADISON * MOCLDY    61  61 100 CALM      29.95S
KEOKUK *       CLEAR     63  59  88 CALM      29.93S
OSKALOOSA *      N/A     59  57  94 N3        29.97S
CENTERVILLE *  CLEAR     59  57  94 NW3       29.97S
OTTUMWA        CLOUDY    61  58  90 N6        29.94S
WASHINGTON *   CLEAR     59  57  94 NE6       29.97S
$$

ABBREVIATIONS USED IN REMARKS
   TC - TEMPERATURES IN CELSIUS
  WCI - WIND CHILL INDEX
   HX - HEAT INDEX
  VSB - VISIBILITY
$$



USA.gov is the U.S. government's official web portal to all federal, state and local government web resources and services.